Regional Weather Roundup
Issued by NWS

Home | Current Version | Previous Version | Text Only | Print | Product List | Glossary On
Versions: 1 2 3 4 5 6 7 8 9 10 11 12 13 14 15 16 17 18 19 20 21 22 23 24 25 26 27 28 29 30 31 32 33 34 35 36 37 38 39 40 41 42 43 44 45 46 47 48 49 50
000
ASUS42 KFFC 270703
RWRGA
WEATHER ROUNDUP FOR GEORGIA
NATIONAL WEATHER SERVICE PEACHTREE CITY GA
300 AM EDT FRI MAR 27 2015

NOTE: "FAIR" INDICATES FEW OR NO CLOUDS BELOW 12,000 FEET WITH NO
SIGNIFICANT WEATHER AND/OR OBSTRUCTIONS TO VISIBILITY.

* = USE WITH CAUTION. THE STATIONS MARKED WITH AN ASTERISK MAY NOT
REPORT WEATHER SUCH AS PRECIPITATION, FOG, OR THUNDER AND ARE NOT
QUALITY CONTROLLED BY NWS.

THE REMARK "TC" DENOTES TEMPERATURE READING IN DEGREES CELSIUS.

GAZ001>058-270800-
NORTH GEORGIA

CITY           SKY/WX    TMP DP  RH WIND       PRES   REMARKS
ATLANTA        CLOUDY    54  49  83 NW9       29.75F
ATHENS         CLOUDY    63  58  83 W6        29.70F
CHAMBLEE       CLOUDY    52  50  93 NW10      29.75F
PEACHTREE CITY LGT RAIN  57  52  83 N6        29.76S
ROME           CLOUDY    48  44  86 N10       29.81F
WEST ATLANTA   LGT RAIN  52  48  86 NW6       29.77F
GAINESVILLE    CLOUDY    54  50  86 NW6       29.74F
CARTERSVILLE   LGT RAIN  48  45  89 VRB7      29.81F


CITY           SKY/WX    TMP DP  RH WIND       PRES   REMARKS
DALTON*        CLOUDY    45  45 100 N13G21    29.81F
$$

GAZ059>098-102>109-270800-
CENTRAL GEORGIA

CITY           SKY/WX    TMP DP  RH WIND       PRES   REMARKS
AUGUSTA-BUSH   CLOUDY    64  59  83 SW8       29.71F
AUGUSTA-DANIEL CLOUDY    65  59  81 SW6       29.72F
COLUMBUS       CLOUDY    64  61  90 SW8       29.75F
MACON          CLOUDY    63  60  90 SW7       29.73F


CITY           SKY/WX    TMP DP  RH WIND       PRES   REMARKS
LAGRANGE*      LGT RAIN  64  64  99 NW5       29.75S
SYLVANIA*      CLOUDY    64  63  97 W5        29.75F
MILLEDGEVILLE* CLOUDY    63  63 100 CALM      29.71F
$$

GAZ099>101-110>166-270800-
SOUTH GEORGIA

CITY           SKY/WX    TMP DP  RH WIND       PRES   REMARKS
SAVANNAH       CLOUDY    66  63  90 SW9       29.76F
VALDOSTA       LGT RAIN  63  62  97 S5        29.83R
ALMA           CLOUDY    63  61  93 S6        29.77F
ST SIMONS      CLOUDY    65  62  90 SW12      29.80F
FT STEWART     CLOUDY    65  63  93 SW8       29.75F
ALBANY         CLOUDY    63  61  93 W5        29.82R
HUNTER AFB     CLOUDY    66  66 100 SW8       29.76F
MOODY AFB      CLOUDY    63  61  94 S8        29.81R
BRUNSWICK      CLOUDY    66  61  82 SW9       29.80F


CITY           SKY/WX    TMP DP  RH WIND       PRES   REMARKS
BAINBRIDGE*    CLOUDY    64  63  94 SW5       29.81F
MOULTRIE*      CLOUDY    63 N/A N/A S5        29.81F HAZE
VIDALIA*       CLOUDY    63  63 100 SW7       29.76F
WAYCROSS*      CLOUDY    66  65  97 S5        29.77F
DOUGLAS*       CLOUDY    64  63  94 W7        29.83R
$$


USA.gov is the U.S. government's official web portal to all federal, state and local government web resources and services.